カタログに戻る

AE5RB

運用中科学SSO
NORAD 66693·PAYLOAD·🇺🇸 United States

打ち上げ Nov 28, 2025 から Vandenberg Space Force Base

Loading…

次のパス (今後24時間)

TLE

最新Source: Space-Track

元期: Sep 14, 2026, 10:54 UTC

1 66693U 25276AD  26257.45423743  .00011085  00000-0  44937-3 0  9991
2 66693  97.4096 330.3258 0004851  66.7692 293.4056 15.24801598 44049

AllMySatでAE5RBをリアルタイム追跡

Download on the App Store